GFSNW_700_rhum_045.txt.gz
RH
36 35 35 33 33 50 48 58 21 45 64 96 99 86 66 65 65 67 71 77 78 81 76 78 76 83 86 84 89 96 97 91 98 99 92 97 98 93 97 78 79 65 64 47
37 33 35 37 37 44 53 59 22 42 73 94 74 72 79 72 66 65 70 72 69 75 78 76 77 75 75 77 78 84 77 86 97 98 97 99 100 91 89 82 74 68 64 48
34 37 37 39 40 47 57 56 30 53 68 100 88 84 79 74 71 64 64 63 64 75 80 83 83 76 66 76 74 74 68 72 73 70 66 68 89 88 90 89 94 75 65 53
41 40 39 40 42 48 58 53 38 43 99 96 100 96 95 88 86 75 65 70 67 79 79 73 83 84 70 66 76 72 70 72 71 75 69 70 66 72 89 93 87 87 78 61
47 44 43 42 43 47 56 60 38 23 46 87 94 93 90 95 90 91 94 73 80 80 85 78 78 75 67 68 70 73 66 66 66 63 61 55 52 53 70 85 83 78 66 63
46 46 47 45 47 49 58 66 43 30 33 42 93 100 98 98 96 92 84 87 92 83 87 84 82 79 79 81 74 75 70 70 63 76 78 78 67 41 43 38 49 52 73 53
46 44 48 51 52 54 60 71 72 35 60 64 94 99 99 100 82 94 84 93 90 89 95 84 78 80 84 84 80 72 76 83 72 87 89 93 42 53 53 46 38 35 42 45
45 46 50 55 58 61 66 69 72 77 54 52 50 47 84 98 87 90 90 92 98 91 87 79 79 82 89 84 86 86 93 87 83 81 82 58 45 47 56 58 55 52 33 37
44 46 47 56 62 64 70 72 72 74 82 86 74 35 35 84 99 99 96 91 96 87 93 94 81 68 74 85 88 95 96 94 83 97 81 90 85 75 70 70 72 72 68 55
40 41 43 53 63 67 68 76 74 78 80 88 94 93 37 43 90 96 91 99 98 94 88 91 87 69 84 86 84 88 91 92 98 87 87 73 61 68 66 88 78 82 74 67
39 42 46 57 67 70 69 76 80 72 64 75 83 92 94 38 34 66 97 99 94 99 98 98 85 87 72 74 78 79 76 90 90 91 81 79 59 70 76 82 88 84 80 61
36 38 48 58 68 71 74 78 68 73 69 70 64 68 84 91 66 37 37 92 94 100 94 100 99 97 87 76 76 76 82 70 70 63 58 60 70 67 63 75 91 92 94 94
37 42 47 60 68 75 66 64 89 92 93 75 65 66 68 90 93 69 58 46 52 90 100 96 96 98 95 86 82 78 76 79 77 80 69 71 70 65 65 67 87 95 96 94
36 35 45 61 70 68 55 85 94 93 93 90 95 96 96 97 96 96 87 64 63 68 70 87 93 100 97 95 82 85 79 82 78 78 72 68 61 59 62 67 72 70 78 92
20 29 40 48 65 60 46 81 86 93 88 92 86 83 84 90 84 72 72 66 64 62 55 62 65 75 91 84 85 93 85 91 90 80 71 64 63 62 66 66 70 78 82 86
10 11 20 37 57 65 61 73 86 92 86 71 72 83 96 92 86 80 69 56 44 30 25 22 22 26 46 56 53 50 69 83 86 78 84 74 61 73 76 80 82 81 83 83
11 15 21 36 52 63 62 66 70 90 83 71 87 96 95 87 90 86 79 73 71 73 69 52 42 36 53 56 38 36 95 100 93 94 92 76 61 76 77 76 76 77 75 73
13 19 30 47 55 64 73 70 66 89 86 81 87 89 82 78 85 84 82 80 82 80 75 65 58 41 44 46 36 28 57 97 97 96 92 84 82 84 73 74 74 70 72 70
15 14 30 48 55 60 70 74 89 91 88 92 91 90 86 75 82 84 78 84 82 79 76 78 83 76 82 93 74 48 46 97 99 99 98 96 83 75 72 70 70 75 68 61
9 14 19 23 34 46 55 57 74 81 85 87 87 86 91 77 82 91 92 96 94 88 83 94 80 86 99 73 86 84 71 97 98 98 92 82 70 73 74 74 71 66 59 56
6 8 13 17 18 17 38 54 71 76 80 62 68 78 78 80 90 99 97 98 98 96 96 97 96 96 91 73 54 77 94 97 99 97 90 88 83 80 76 70 64 60 59 57
5 7 8 8 13 16 28 35 40 53 50 50 50 59 67 70 88 95 98 97 99 92 99 98 98 98 96 96 88 84 88 97 97 99 96 94 88 85 78 75 76 76 78 76
6 6 9 17 10 12 18 30 31 30 22 28 36 42 54 67 82 94 97 97 95 98 97 97 98 96 95 97 97 97 93 92 97 97 98 100 97 94 92 89 87 86 89 86
6 7 9 8 9 12 14 17 24 30 24 20 18 19 43 72 76 95 96 97 97 97 97 97 96 96 97 94 97 98 97 98 97 97 97 98 97 91 86 79 72 62 50 43
7 7 8 9 10 11 13 14 17 22 25 24 21 16 32 72 94 97 96 96 97 96 97 97 97 97 96 100 100 97 97 99 97 97 97 97 96 91 83 78 74 67 68 63
11 9 10 12 12 14 14 16 16 19 21 26 20 21 45 84 73 81 97 97 96 94 96 96 96 98 98 97 97 95 96 97 97 97 97 97 95 88 85 81 79 78 76 69
13 14 20 19 19 19 19 19 20 19 18 25 27 24 28 29 56 77 68 80 62 56 63 83 96 96 99 99 98 97 96 96 97 98 98 98 97 98 93 89 90 83 79 70

GFSNW_700_rhum_048.txt.gz
RH
24 26 32 32 29 36 46 51 43 56 66 97 94 79 84 72 70 68 74 78 76 74 79 79 77 87 88 89 88 92 89 81 100 100 100 100 100 98 94 90 91 74 68 54
28 28 33 34 29 34 47 56 40 45 72 94 89 84 80 70 66 65 67 72 75 76 80 77 76 79 80 89 100 96 87 86 98 100 98 99 97 97 97 92 82 73 72 55
28 32 33 36 34 33 50 55 42 50 88 98 96 95 80 77 77 67 63 63 62 68 78 77 77 76 82 80 86 87 80 71 73 72 66 74 94 82 95 96 99 84 74 64
33 35 38 38 38 37 44 54 44 53 100 98 97 94 94 93 88 73 65 66 65 76 76 81 79 76 73 82 85 85 80 73 67 70 63 72 74 76 85 98 89 88 74 72
38 38 38 42 43 39 45 53 47 28 44 100 95 91 97 100 93 98 93 78 76 84 82 78 76 71 72 68 77 81 79 68 66 74 76 74 64 56 61 87 92 84 84 81
36 36 37 42 42 44 44 48 59 36 40 59 94 90 97 91 94 98 98 88 86 87 88 87 82 80 73 67 69 72 75 71 65 67 72 75 68 42 44 39 52 61 94 53
32 37 40 42 43 44 46 48 54 64 52 56 81 91 92 95 98 94 95 87 85 80 84 86 87 86 83 82 82 80 75 77 71 77 90 90 39 47 57 55 47 41 38 42
32 36 40 45 47 50 50 49 53 58 69 54 64 82 76 93 96 98 96 98 91 94 92 83 81 84 88 91 89 85 80 82 79 77 93 56 36 53 56 55 45 49 38 33
31 36 39 48 53 54 52 54 55 57 61 69 81 59 46 46 90 97 100 100 100 98 98 86 79 74 73 84 86 98 98 93 88 95 80 93 81 78 69 77 64 61 64 53
32 36 42 51 56 54 57 62 69 68 64 67 74 85 86 40 92 94 95 98 97 97 95 98 85 72 76 84 85 87 92 90 91 91 97 70 52 61 65 82 68 86 82 75
28 34 43 50 59 60 59 66 75 75 68 63 63 70 86 85 39 89 98 96 95 97 98 100 92 88 74 76 80 78 74 86 87 91 95 77 58 59 62 68 82 87 82 67
22 27 32 40 56 58 60 67 73 80 86 80 69 61 67 83 88 43 68 94 95 93 94 98 97 93 93 82 78 69 81 70 65 64 57 58 68 64 64 63 79 91 89 84
11 18 30 42 55 56 58 70 81 82 82 60 66 70 65 69 93 82 44 44 93 100 98 98 100 97 96 90 85 81 73 73 76 75 60 58 62 63 65 67 69 97 97 95
7 10 19 37 52 52 54 70 79 78 83 89 93 93 94 95 96 97 89 45 46 48 88 100 100 99 87 84 78 92 84 86 83 79 70 71 67 63 66 65 64 74 89 94
9 14 18 35 53 59 61 67 83 77 74 80 83 90 93 93 93 95 95 92 77 80 92 93 92 81 78 76 77 73 71 86 88 89 88 85 74 65 64 65 73 72 76 75
12 22 38 49 57 63 58 61 77 70 66 73 85 93 91 86 90 92 78 60 55 44 39 41 39 33 39 35 31 22 22 32 90 96 88 89 92 80 68 76 81 78 82 90
12 28 43 50 55 67 71 67 82 81 72 78 88 86 83 72 80 84 79 76 71 72 73 66 64 60 56 50 48 52 47 45 65 70 96 96 96 93 73 69 81 85 88 87
12 27 36 40 59 65 75 76 76 83 76 71 78 80 72 71 68 71 78 77 74 68 72 69 74 72 70 64 92 81 85 65 48 94 98 95 86 93 77 73 77 71 76 79
10 16 19 23 50 60 75 80 80 72 56 60 69 72 78 73 68 70 79 82 79 74 74 78 83 75 91 97 92 72 87 70 36 96 98 88 87 97 90 80 75 73 73 75
4 6 9 9 13 18 31 51 52 58 45 41 42 47 58 63 70 81 84 91 87 83 78 85 83 79 98 97 89 64 67 72 96 97 99 99 98 97 88 79 75 70 66 63
6 5 5 6 7 11 16 21 39 26 31 21 24 26 29 54 67 80 89 92 93 93 90 98 96 96 97 97 91 77 94 98 98 97 98 96 94 97 88 81 74 68 67 64
5 6 6 6 6 6 9 11 14 17 16 16 17 20 16 37 70 80 98 98 99 91 99 98 97 97 98 98 93 88 89 96 99 98 97 100 100 93 86 84 79 74 74 73
7 8 6 7 7 8 8 10 13 17 14 17 15 16 15 40 74 80 100 100 95 98 99 97 97 100 98 96 96 95 95 94 95 97 98 98 98 97 95 87 86 85 84 79
10 10 7 7 8 9 10 12 14 18 16 14 13 11 16 44 77 92 100 95 98 97 94 96 97 96 99 97 96 96 96 98 100 97 97 97 98 97 96 86 78 67 58 54
18 15 8 10 12 12 12 15 16 17 17 16 16 11 10 50 80 74 74 96 96 94 92 91 81 89 99 98 96 96 96 96 97 97 97 97 97 97 95 88 84 80 80 78
21 19 11 12 17 15 17 17 17 18 21 21 21 18 19 33 29 37 71 80 42 37 30 54 61 67 85 97 96 94 95 97 97 97 97 97 97 96 96 93 84 82 84 82
26 18 15 24 30 28 29 33 34 29 29 28 28 25 24 20 25 36 52 57 40 20 21 32 55 55 55 87 96 94 95 95 97 96 96 96 97 97 96 94 89 86 87 87

GFSNW_700_rhum_051.txt.gz
RH
10 16 22 28 32 33 41 54 52 69 64 90 94 91 82 87 89 86 83 89 88 87 87 88 91 94 94 87 87 86 85 84 99 100 98 99 97 93 93 91 94 84 78 62
10 20 27 31 33 33 41 54 48 60 63 95 96 95 82 72 73 79 83 85 84 82 83 81 83 86 84 89 96 97 95 98 99 100 94 96 99 96 87 90 94 83 81 64
11 24 29 31 32 33 39 51 48 50 81 95 96 90 83 74 76 70 70 75 73 79 82 78 82 87 89 96 92 92 98 86 82 75 73 81 96 96 98 99 99 88 82 70
10 23 27 28 28 32 37 45 46 53 95 94 90 89 90 88 88 80 66 70 73 87 82 79 76 83 87 90 94 96 95 83 74 73 71 66 70 74 87 100 88 99 81 78
9 20 26 28 29 33 42 46 51 40 50 72 84 82 96 86 95 88 94 86 79 87 82 77 75 72 76 78 87 90 88 81 68 65 74 74 72 69 72 72 81 92 90 79
7 17 22 25 28 36 40 46 49 54 44 76 92 93 96 91 99 81 86 93 94 92 91 87 81 81 77 69 69 78 85 77 72 63 65 73 68 39 48 52 49 42 90 26
9 15 21 25 28 35 42 44 47 57 56 49 66 96 93 97 84 84 100 88 92 90 89 93 90 84 82 81 78 74 72 75 75 69 70 85 35 42 43 47 42 49 39 35
16 19 20 23 31 39 44 51 53 56 63 63 60 72 89 85 89 89 98 98 84 98 90 95 93 93 88 87 87 85 83 83 78 72 92 56 30 31 49 59 48 51 46 45
15 18 21 26 35 44 49 53 58 62 62 63 71 58 65 71 66 88 95 93 92 94 98 98 87 76 74 83 85 91 94 90 84 92 78 92 62 79 72 68 58 82 67 57
10 16 18 21 37 46 55 61 63 65 62 59 62 71 77 66 45 58 98 95 93 93 89 97 96 80 77 81 86 89 92 94 95 83 92 74 54 58 66 75 67 79 84 83
9 12 11 14 35 48 59 64 73 72 74 64 61 64 70 79 52 74 93 94 96 98 96 92 91 94 81 79 80 80 76 87 84 87 91 82 59 63 62 65 64 76 87 81
4 5 5 12 30 46 55 64 69 67 59 60 64 63 67 77 82 53 83 92 93 85 90 98 92 95 98 84 82 75 83 73 71 68 56 57 59 65 66 65 67 76 90 90
4 5 6 12 34 46 56 68 67 67 75 78 82 79 70 65 73 88 58 58 88 90 93 98 100 94 97 94 93 89 80 77 84 81 62 58 66 66 65 69 71 71 99 97
5 6 11 17 32 49 57 73 68 70 69 78 85 89 91 93 90 87 88 51 46 78 94 97 95 100 96 92 90 81 73 82 86 87 81 81 71 65 69 77 73 69 74 93
4 6 19 29 31 52 58 74 65 68 69 79 87 83 81 89 83 90 94 90 60 51 55 52 59 66 76 82 70 45 36 34 50 76 95 94 79 71 80 68 69 68 72 78
4 12 26 37 42 54 58 76 62 67 69 72 85 85 74 75 82 81 71 73 89 81 90 76 45 44 43 42 41 38 49 54 48 36 45 97 95 78 90 82 78 79 76 74
4 10 21 40 51 57 64 70 75 72 73 74 76 76 73 75 66 65 72 75 75 78 77 77 78 77 68 60 58 76 86 47 33 45 47 34 54 93 96 94 88 78 85 86
5 6 18 28 51 62 67 77 79 70 64 70 59 66 76 72 65 64 68 68 71 75 78 74 75 78 75 71 97 100 72 51 43 38 35 64 51 69 100 95 96 77 80 80
4 4 4 8 23 33 48 44 28 14 16 25 20 24 40 44 61 67 74 70 70 74 76 77 82 82 96 100 99 90 77 82 85 76 34 45 57 84 94 98 99 88 80 75
3 3 3 4 4 6 9 11 9 12 10 14 16 14 22 26 56 72 84 88 82 81 81 84 89 93 97 100 100 94 91 94 100 96 96 100 75 100 91 98 93 96 83 70
5 5 4 5 5 6 6 6 11 8 13 11 10 10 13 24 53 74 90 98 96 90 89 94 97 99 91 91 99 97 95 98 100 97 96 97 98 99 97 93 98 95 84 76
6 7 6 6 6 6 7 8 9 10 11 11 10 11 10 20 46 81 100 100 100 93 97 96 96 88 91 90 96 96 95 96 99 99 96 98 98 97 97 96 97 94 84 79
8 9 9 7 8 10 11 11 13 14 15 15 14 14 11 16 64 80 100 100 96 97 96 94 86 87 89 89 90 94 95 96 97 93 92 99 100 100 100 99 100 97 86 80
12 13 11 9 9 13 15 15 16 17 17 18 20 19 17 12 39 80 94 97 97 94 72 33 27 33 54 78 85 88 92 95 96 96 96 92 97 98 98 96 95 93 66 55
13 14 11 10 14 16 17 17 18 19 23 24 24 24 22 17 23 48 34 84 83 55 28 21 20 22 23 34 66 79 90 94 95 96 96 96 96 96 97 96 96 95 85 84
18 19 16 14 16 19 24 26 27 28 30 31 30 30 25 19 21 25 22 66 45 30 32 22 25 23 22 21 34 50 75 89 95 95 96 96 96 96 97 96 96 96 94 94
22 23 22 17 23 28 27 27 28 29 30 34 39 35 27 27 25 24 29 33 30 24 20 21 25 39 32 29 31 37 50 84 92 95 96 96 96 96 97 97 96 96 96 91

GFSNW_700_rhum_054.txt.gz
RH
3 4 9 18 27 26 30 45 52 62 73 94 100 100 100 100 97 87 78 91 94 93 92 97 98 86 92 88 84 82 70 73 100 100 98 99 95 90 79 79 89 85 82 62
3 5 10 17 18 26 29 39 50 59 65 98 99 99 98 90 81 76 83 85 85 88 87 90 94 96 97 80 79 85 77 87 99 99 99 98 100 99 100 94 88 86 86 70
3 5 9 17 18 22 30 35 47 58 61 99 99 98 91 84 86 76 74 78 77 82 84 85 87 90 98 99 100 97 86 85 80 73 72 72 88 89 100 100 99 89 90 77
3 6 8 14 16 19 30 33 40 52 74 97 99 94 91 90 96 89 74 74 70 79 86 84 73 81 87 97 98 92 92 92 82 85 85 78 71 76 83 100 73 99 66 82
3 6 8 12 15 18 27 31 36 44 53 78 94 96 94 94 97 86 89 86 79 86 81 79 83 81 78 81 85 89 96 94 83 78 69 71 72 67 70 76 79 96 99 90
4 6 8 11 12 17 27 33 37 44 46 49 84 92 94 100 100 97 86 92 92 91 88 84 83 84 84 80 78 84 90 92 86 72 67 74 78 39 53 57 58 60 85 26
5 6 7 9 14 20 31 36 41 45 51 54 71 91 100 100 99 99 100 91 92 90 93 94 89 86 85 84 82 81 88 87 83 71 71 73 42 44 46 49 44 54 49 37
6 5 6 11 18 26 37 40 42 48 52 60 65 72 95 97 97 96 93 98 92 99 88 96 94 91 92 88 89 90 89 87 79 75 83 53 35 54 58 57 47 64 65 66
4 4 6 9 18 30 40 45 49 50 54 57 63 60 61 74 87 90 94 95 98 99 93 95 92 81 81 88 91 95 92 93 89 87 84 84 51 81 78 73 68 86 85 88
3 2 4 6 17 34 43 46 46 51 59 57 59 64 71 64 64 62 66 87 94 96 87 94 93 87 81 83 84 86 91 87 94 89 81 69 54 62 62 66 68 68 66 80
2 3 4 7 20 36 44 49 46 53 54 59 60 59 60 67 76 57 69 77 92 96 95 95 94 94 87 86 86 84 81 84 82 92 84 78 61 68 62 66 68 66 68 79
2 3 4 6 19 37 46 48 46 54 59 62 59 58 59 67 77 69 62 90 81 83 87 96 92 90 100 91 84 78 86 83 79 73 63 63 67 71 72 74 72 74 70 85
2 4 5 8 20 37 47 48 50 51 59 68 73 78 71 63 65 76 64 75 97 91 80 92 100 98 100 99 100 94 92 87 94 89 78 75 71 77 83 78 75 79 76 78
3 4 10 16 22 38 49 49 54 56 60 67 75 76 81 82 82 76 81 77 52 84 100 96 90 87 91 94 91 88 72 72 70 65 64 66 77 85 78 71 82 70 75 81
4 9 18 25 28 40 52 50 58 60 60 62 71 72 75 76 79 71 82 94 77 46 56 61 58 56 56 58 65 70 42 40 55 59 51 46 29 41 87 83 84 79 75 75
4 6 22 35 38 44 54 54 55 59 67 64 73 75 78 78 70 70 75 72 93 71 60 59 67 84 63 45 41 51 72 97 87 55 38 26 21 27 36 89 92 89 88 87
3 8 24 37 46 50 56 58 62 59 61 60 61 72 74 58 53 66 76 77 75 71 78 76 69 68 80 70 66 72 85 87 70 72 58 57 51 25 16 32 76 97 91 88
2 5 17 23 39 51 39 19 16 28 15 22 14 21 27 16 46 60 70 74 80 85 89 87 82 80 81 78 89 78 82 74 73 75 78 82 72 61 31 14 46 92 98 96
2 3 6 9 16 19 11 7 5 5 6 8 8 8 15 14 27 48 61 76 84 88 86 83 87 90 96 96 80 78 84 83 79 79 80 82 71 67 66 46 53 83 98 100
2 3 3 4 5 4 5 6 6 6 8 9 9 9 11 10 17 37 66 83 86 91 90 94 96 96 90 88 95 91 89 87 91 82 75 83 90 100 90 63 61 96 97 99
3 3 4 4 5 5 6 7 7 9 10 15 15 14 11 12 24 48 64 81 94 96 96 96 96 82 75 87 88 89 94 94 93 98 92 99 94 99 88 94 98 94 97 99
5 5 5 5 6 7 8 10 11 12 15 19 20 21 19 16 11 36 56 86 93 96 95 96 72 35 36 48 64 75 86 93 94 94 98 98 93 98 98 96 96 97 97 98
7 8 7 7 7 9 11 12 14 16 19 20 22 23 23 21 18 23 29 75 93 94 93 67 30 19 18 22 30 42 67 88 94 96 96 95 99 93 96 99 98 99 98 98
8 10 10 8 8 10 12 14 15 16 19 22 23 25 26 25 22 13 14 53 76 97 70 20 25 15 13 15 16 24 38 53 83 88 94 96 97 99 98 97 99 94 100 93
12 12 11 10 10 13 15 18 20 23 25 28 29 30 29 29 23 17 14 24 82 69 28 32 25 20 18 13 12 17 20 37 54 80 92 96 96 99 99 100 98 97 91 87
14 14 13 12 13 16 19 26 27 28 30 34 34 34 32 28 24 22 23 23 24 28 42 38 25 25 26 20 14 14 19 27 45 62 86 95 96 96 98 97 98 97 94 90
19 19 20 20 20 24 24 25 29 35 37 38 37 36 32 34 33 30 29 28 37 41 40 33 36 38 33 26 19 19 19 23 36 53 65 93 96 96 96 97 96 97 96 96